STARLINK-34657, 64775

Orbit data source: Space-Track

STARLINK-34657, 64775 is a payload satellite owned by SpaceX/Seattle (US) in LEO that was launched on Tue, 08 Jul 2025 UTC via an FALCON 9 launch vehicle from the Air Force Eastern Test Range (AFETR). Payload-class satellites include a variety of spacecraft equipped with specific instruments for various scientific and technological missions. These include communications satellites like Starlink; space stations such as the ISS; scientific satellites like the Hubble; Earth observation satellites from companies like Planet Labs, Umbra, and HawkEye 360; GPS; miniature CubeSats for education and research; and military/defense satellites.

Loading next visibility...
Identifier
64775, 2025-147W
Orbit
LEO
Country
Flag of USUS
Related business
Manufacturer
SpaceX/Seattle
Mission
Operational Commercial Communications
Bus & Motor
STARLINK V2MO, Unknown motor
Mass
575 kg wet, ~530 kg dry
Launch date (UTC)
2025-07-08 (1 year ago)
Launch vehicle
FALCON 9
Launch site
Air Force Eastern Test Range (AFETR)
Object type
Payload
Rocket body
Debris
Shape & HBR
Box + 1 Pan, 17.7 m
Radar Cross Section
41.120 m², Large (>1 m²)

Expand to show TLE details & history
Last TLE update: 21 hours ago

TLE from 21 hours ago
0 STARLINK-34657
1 64775U 25147W   26235.14927702  .00023369  00000-0  70066-3 0  9993
2 64775  53.1583 186.2882 0000742  81.3767 278.7320 15.34398108 64287
Epoch: 2026-08-23T03:34Z
TLE epoch observation values (Epoch: 2026-08-23T03:34:57.534Z)
Latitude
0.00001°
Longitude
161.099°
Altitude
463.533 km
Speed
7.636 km/s
True Right ascension
12h 25m 09s
True Declination
0° 00' 00"
Sunlit
Object was in daylight at epoch
Visualization orbit readout
Latitude
Unknown
Longitude
Unknown
Altitude
Unknown
Speed
Unknown
Apparent Right ascension
Unknown
Apparent Declination
Unknown
Sunlit
N/A
Visualization observer readout
Local Sidereal Time
15:54:09
Azimuth
Unknown
Elevation
Unknown
Doppler factor
Unknown
Orbital elements
Apogee altitude
463.474 km
Perigee altitude
462.458 km
Semi-major axis
6,841.103 km
Eccentricity
0.00007
Inclination
53.1583°
RAAN
186.2882°
Arg. of periapsis
81.3767°
True anomaly
278.7236°
Mean anomaly
278.732°
Eccentric anomaly
278.7278°
Mean motion
3.83578 °/min
Orbital period
93.85 mins
BSTAR
0.00070066
Loading maneuver chart data...
Computing Atmospheric mass density...
Loading historical data...
Loading historical data...
Loading historical data...
Loading historical data...
Loading historical data...
Loading historical data...
Loading historical data...

Documentation

Showing up to 5 results
|